Overview Statistics Trail Chart Weather Telemetry Raw packets
 

This is the latest recevied weather packets stored in our database for station/object W7TRD. If no packets are shown the sender has not sent any weather packets the latest 10 day(s).

<< 49 50 51 52 53 54 55 >>
Time Temp. Humidity Pressure Rain* Wind** Luminosity Snow
1788286229 16.11° C 89% 1013.4 hPa 0 mm - 225 W/m² -
1788285927 15.56° C 90% 1013.3 hPa 0 mm - 141 W/m² -
1788285623 15.56° C 89% 1013.4 hPa 0 mm - 60 W/m² -
1788285317 16.11° C 87% 1013.4 hPa 0 mm - 49 W/m² -
1788285016 16.11° C 87% 1013.5 hPa 0 mm - 51 W/m² -
1788284713 16.11° C 87% 1013.3 hPa 0 mm - 49 W/m² -
1788284408 16.11° C 86% 1013.4 hPa 0 mm - 66 W/m² -
1788284103 16.67° C 85% 1013.2 hPa 0 mm - 104 W/m² -
1788283799 16.67° C 86% 1013.2 hPa 0 mm - 166 W/m² -
1788283494 16.11° C 86% 1013.2 hPa 0 mm - 179 W/m² -
1788283192 16.11° C 87% 1013.3 hPa 0 mm - 120 W/m² -
1788282891 16.11° C 88% 1013.1 hPa 0 mm - 120 W/m² -
1788282590 16.11° C 89% 1012.9 hPa 0 mm - 152 W/m² -
1788282285 15.56° C 91% 1013 hPa 0 mm - 138 W/m² -
1788281984 15.56° C 91% 1013 hPa 0 mm - 159 W/m² -
1788281679 15.56° C 91% 1013.1 hPa 0 mm - 138 W/m² -
1788281375 15.56° C 90% 1013 hPa 0 mm - 152 W/m² -
1788281070 15.56° C 90% 1012.8 hPa 0 mm - 144 W/m² -
1788280765 15.56° C 90% 1012.9 hPa 0 mm - 139 W/m² -
1788280460 15.56° C 91% 1013.2 hPa 0 mm - 134 W/m² -
1788280159 15.56° C 91% 1012.8 hPa 0 mm - 95 W/m² -
1788279854 15.56° C 91% 1013 hPa 0 mm - 54 W/m² -
1788279554 15.56° C 88% 1012.9 hPa 0 mm - 36 W/m² -
1788279253 15.56° C 88% 1012.9 hPa 0 mm - 70 W/m² -
1788278948 15° C 89% 1012.8 hPa 0 mm - 75 W/m² -

* Rain latest hour (hover to see other rain measurements)
** Current wind speed in m/s (hover to see current wind gust speed)